owner,sensor,date,latitude,longitude,vertical_datum,wind_speed,wind_to_direction,wind_speed_of_gust,qcFlag 
DISL,ioos:station:DISL:DISL:1,2013-05-01T00:00:00Z,30.2513,-88.0778,9.68,7.07,115.3,-9999.0,'1111122,1111122,1111122' 
DISL,ioos:station:DISL:DISL:1,2013-05-01T00:30:00Z,30.2513,-88.0778,9.68,7.01,123.0,-9999.0,'1111122,1111122,1111122' 
DISL,ioos:station:DISL:DISL:1,2013-05-01T01:00:00Z,30.2513,-88.0778,9.68,6.19,129.2,-9999.0,'1111122,1111122,1111122' 
DISL,ioos:station:DISL:DISL:1,2013-05-01T01:30:00Z,30.2513,-88.0778,9.68,7.21,122.1,-9999.0,'1111122,1111122,1111122' 
DISL,ioos:station:DISL:DISL:1,2013-05-01T02:00:00Z,30.2513,-88.0778,9.68,7.36,111.5,-9999.0,'1111122,1111122,1111122' 
DISL,ioos:station:DISL:DISL:1,2013-05-01T02:30:00Z,30.2513,-88.0778,9.68,6.92,114.0,-9999.0,'1111122,1111122,1111122' 
DISL,ioos:station:DISL:DISL:1,2013-05-01T03:00:00Z,30.2513,-88.0778,9.68,7.26,117.2,-9999.0,'1111122,1111122,1111122' 
DISL,ioos:station:DISL:DISL:1,2013-05-01T03:30:00Z,30.2513,-88.0778,9.68,6.77,108.2,-9999.0,'1111122,1111122,1111122' 
DISL,ioos:station:DISL:DISL:1,2013-05-01T04:00:00Z,30.2513,-88.0778,9.68,7.28,118.0,-9999.0,'1111122,1111122,1111122' 
DISL,ioos:station:DISL:DISL:1,2013-05-01T04:30:00Z,30.2513,-88.0778,9.68,8.26,112.8,-9999.0,'1111122,1111122,1111122' 
DISL,ioos:station:DISL:DISL:1,2013-05-01T05:00:00Z,30.2513,-88.0778,9.68,7.92,104.4,-9999.0,'1111122,1111122,1111122' 
DISL,ioos:station:DISL:DISL:1,2013-05-01T05:30:00Z,30.2513,-88.0778,9.68,8.2,108.4,-9999.0,'1111122,1111122,1111122' 
DISL,ioos:station:DISL:DISL:1,2013-05-01T06:00:00Z,30.2513,-88.0778,9.68,6.94,110.4,-9999.0,'1111122,1111122,1111122' 
DISL,ioos:station:DISL:DISL:1,2013-05-01T06:30:00Z,30.2513,-88.0778,9.68,6.96,118.3,-9999.0,'1111122,1111122,1111122' 
DISL,ioos:station:DISL:DISL:1,2013-05-01T07:00:00Z,30.2513,-88.0778,9.68,6.02,115.8,-9999.0,'1111122,1111122,1111122' 
DISL,ioos:station:DISL:DISL:1,2013-05-01T07:30:00Z,30.2513,-88.0778,9.68,6.01,101.7,-9999.0,'1111122,1111122,1111122' 
DISL,ioos:station:DISL:DISL:1,2013-05-01T08:00:00Z,30.2513,-88.0778,9.68,6.31,106.4,-9999.0,'1111122,1111122,1111122' 
DISL,ioos:station:DISL:DISL:1,2013-05-01T08:30:00Z,30.2513,-88.0778,9.68,7.14,94.1,-9999.0,'1111122,1111122,1111122' 
DISL,ioos:station:DISL:DISL:1,2013-05-01T09:00:00Z,30.2513,-88.0778,9.68,7.77,94.5,-9999.0,'1111122,1111122,1111122' 
DISL,ioos:station:DISL:DISL:1,2013-05-01T09:30:00Z,30.2513,-88.0778,9.68,7.83,95.2,-9999.0,'1111122,1111122,1111122' 
DISL,ioos:station:DISL:DISL:1,2013-05-01T10:00:00Z,30.2513,-88.0778,9.68,7.59,96.9,-9999.0,'1111122,1111122,1111122' 
DISL,ioos:station:DISL:DISL:1,2013-05-01T10:30:00Z,30.2513,-88.0778,9.68,7.69,101.5,-9999.0,'1111122,1111122,1111122' 
DISL,ioos:station:DISL:DISL:1,2013-05-01T11:00:00Z,30.2513,-88.0778,9.68,7.77,98.0,-9999.0,'1111122,1111122,1111122' 
DISL,ioos:station:DISL:DISL:1,2013-05-01T11:30:00Z,30.2513,-88.0778,9.68,8.22,99.7,-9999.0,'1111122,1111122,1111122' 
DISL,ioos:station:DISL:DISL:1,2013-05-01T12:00:00Z,30.2513,-88.0778,9.68,8.96,99.0,-9999.0,'1111122,1111122,1111122' 
DISL,ioos:station:DISL:DISL:1,2013-05-01T12:30:00Z,30.2513,-88.0778,9.68,9.03,97.8,-9999.0,'1111122,1111122,1111122' 
DISL,ioos:station:DISL:DISL:1,2013-05-01T13:00:00Z,30.2513,-88.0778,9.68,8.96,96.1,-9999.0,'1111122,1111122,1111122' 
DISL,ioos:station:DISL:DISL:1,2013-05-01T13:30:00Z,30.2513,-88.0778,9.68,8.75,101.6,-9999.0,'1111122,1111122,1111122' 
DISL,ioos:station:DISL:DISL:1,2013-05-01T14:00:00Z,30.2513,-88.0778,9.68,9.6,99.5,-9999.0,'1111122,1111122,1111122' 
DISL,ioos:station:DISL:DISL:1,2013-05-01T14:30:00Z,30.2513,-88.0778,9.68,9.32,103.8,-9999.0,'1111122,1111122,1111122' 
DISL,ioos:station:DISL:DISL:1,2013-05-01T15:00:00Z,30.2513,-88.0778,9.68,9.63,103.5,-9999.0,'1111122,1111122,1111122' 
DISL,ioos:station:DISL:DISL:1,2013-05-01T15:30:00Z,30.2513,-88.0778,9.68,10.47,102.4,-9999.0,'1111122,1111122,1111122' 
DISL,ioos:station:DISL:DISL:1,2013-05-01T16:00:00Z,30.2513,-88.0778,9.68,10.95,104.6,-9999.0,'1111122,1111122,1111122' 
DISL,ioos:station:DISL:DISL:1,2013-05-01T16:30:00Z,30.2513,-88.0778,9.68,11.39,108.6,-9999.0,'1111122,1111122,1111122' 
DISL,ioos:station:DISL:DISL:1,2013-05-01T17:00:00Z,30.2513,-88.0778,9.68,11.28,104.1,-9999.0,'1111122,1111122,1111122' 
DISL,ioos:station:DISL:DISL:1,2013-05-01T17:30:00Z,30.2513,-88.0778,9.68,11.04,107.6,-9999.0,'1111122,1111122,1111122' 
DISL,ioos:station:DISL:DISL:1,2013-05-01T18:00:00Z,30.2513,-88.0778,9.68,11.81,102.2,-9999.0,'1111122,1111122,1111122' 
DISL,ioos:station:DISL:DISL:1,2013-05-01T18:30:00Z,30.2513,-88.0778,9.68,11.98,104.4,-9999.0,'1111122,1111122,1111122' 
DISL,ioos:station:DISL:DISL:1,2013-05-01T19:00:00Z,30.2513,-88.0778,9.68,12.33,104.9,-9999.0,'1111122,1111122,1111122' 
DISL,ioos:station:DISL:DISL:1,2013-05-01T19:30:00Z,30.2513,-88.0778,9.68,12.23,102.2,-9999.0,'1111122,1111122,1111122' 
DISL,ioos:station:DISL:DISL:1,2013-05-01T20:00:00Z,30.2513,-88.0778,9.68,13.11,94.3,-9999.0,'1111122,1111122,1111122' 
DISL,ioos:station:DISL:DISL:1,2013-05-01T20:30:00Z,30.2513,-88.0778,9.68,12.88,96.9,-9999.0,'1111122,1111122,1111122' 
DISL,ioos:station:DISL:DISL:1,2013-05-01T21:00:00Z,30.2513,-88.0778,9.68,12.66,95.2,-9999.0,'1111122,1111122,1111122' 
DISL,ioos:station:DISL:DISL:1,2013-05-01T21:30:00Z,30.2513,-88.0778,9.68,13.33,99.0,-9999.0,'1111122,1111122,1111122' 
DISL,ioos:station:DISL:DISL:1,2013-05-01T22:00:00Z,30.2513,-88.0778,9.68,12.05,94.1,-9999.0,'1111122,1111122,1111122' 
DISL,ioos:station:DISL:DISL:1,2013-05-01T22:30:00Z,30.2513,-88.0778,9.68,12.85,94.2,-9999.0,'1111122,1111122,1111122' 
DISL,ioos:station:DISL:DISL:1,2013-05-01T23:00:00Z,30.2513,-88.0778,9.68,12.27,103.0,-9999.0,'1111122,1111122,1111122' 
DISL,ioos:station:DISL:DISL:1,2013-05-01T23:30:00Z,30.2513,-88.0778,9.68,14.32,99.6,-9999.0,'1111122,1111122,1111122' 
DISL,ioos:station:DISL:DISL:1,2013-05-02T00:00:00Z,30.2513,-88.0778,9.68,11.74,103.7,-9999.0,'1111122,1111122,1111122' 
DISL,ioos:station:DISL:DISL:1,2013-05-02T00:30:00Z,30.2513,-88.0778,9.68,12.42,103.8,-9999.0,'1111122,1111122,1111122' 
DISL,ioos:station:DISL:DISL:1,2013-05-02T01:00:00Z,30.2513,-88.0778,9.68,13.21,97.1,-9999.0,'1111122,1111122,1111122' 
DISL,ioos:station:DISL:DISL:1,2013-05-02T01:30:00Z,30.2513,-88.0778,9.68,11.07,107.5,-9999.0,'1111122,1111122,1111122' 
DISL,ioos:station:DISL:DISL:1,2013-05-02T02:00:00Z,30.2513,-88.0778,9.68,14.09,104.2,-9999.0,'1111122,1111122,1111122' 
DISL,ioos:station:DISL:DISL:1,2013-05-02T02:30:00Z,30.2513,-88.0778,9.68,13.72,101.8,-9999.0,'1111122,1111122,1111122' 
DISL,ioos:station:DISL:DISL:1,2013-05-02T03:00:00Z,30.2513,-88.0778,9.68,11.59,97.5,-9999.0,'1111122,1111122,1111122' 
DISL,ioos:station:DISL:DISL:1,2013-05-02T03:30:00Z,30.2513,-88.0778,9.68,12.95,86.1,-9999.0,'1111122,1111122,1111122' 
DISL,ioos:station:DISL:DISL:1,2013-05-02T04:00:00Z,30.2513,-88.0778,9.68,5.84,140.3,-9999.0,'1111122,1111122,1111122' 
DISL,ioos:station:DISL:DISL:1,2013-05-02T04:30:00Z,30.2513,-88.0778,9.68,4.91,304.8,-9999.0,'1111122,1111122,1111122' 
DISL,ioos:station:DISL:DISL:1,2013-05-02T05:00:00Z,30.2513,-88.0778,9.68,2.75,332.7,-9999.0,'1111122,1111122,1111122' 
DISL,ioos:station:DISL:DISL:1,2013-05-02T05:30:00Z,30.2513,-88.0778,9.68,3.44,269.6,-9999.0,'1111122,1111122,1111122' 
DISL,ioos:station:DISL:DISL:1,2013-05-02T06:00:00Z,30.2513,-88.0778,9.68,4.82,210.7,-9999.0,'1111122,1111122,1111122' 
DISL,ioos:station:DISL:DISL:1,2013-05-02T06:30:00Z,30.2513,-88.0778,9.68,5.95,80.1,-9999.0,'1111122,1111122,1111122' 
DISL,ioos:station:DISL:DISL:1,2013-05-02T07:00:00Z,30.2513,-88.0778,9.68,3.83,334.9,-9999.0,'1111122,1111122,1111122' 
DISL,ioos:station:DISL:DISL:1,2013-05-02T07:30:00Z,30.2513,-88.0778,9.68,11.76,63.18,-9999.0,'1111122,1111122,1111122' 
DISL,ioos:station:DISL:DISL:1,2013-05-02T08:00:00Z,30.2513,-88.0778,9.68,5.38,57.01,-9999.0,'1111122,1111122,1111122' 
DISL,ioos:station:DISL:DISL:1,2013-05-02T08:30:00Z,30.2513,-88.0778,9.68,5.28,75.1,-9999.0,'1111122,1111122,1111122' 
DISL,ioos:station:DISL:DISL:1,2013-05-02T09:00:00Z,30.2513,-88.0778,9.68,10.59,106.5,-9999.0,'1111122,1111122,1111122' 
DISL,ioos:station:DISL:DISL:1,2013-05-02T09:30:00Z,30.2513,-88.0778,9.68,7.76,95.1,-9999.0,'1111122,1111122,1111122' 
DISL,ioos:station:DISL:DISL:1,2013-05-02T10:00:00Z,30.2513,-88.0778,9.68,7.88,89.8,-9999.0,'1111122,1111122,1111122' 
DISL,ioos:station:DISL:DISL:1,2013-05-02T10:30:00Z,30.2513,-88.0778,9.68,5.9,75.8,-9999.0,'1111122,1111122,1111122' 
DISL,ioos:station:DISL:DISL:1,2013-05-02T11:00:00Z,30.2513,-88.0778,9.68,6.42,68.1,-9999.0,'1111122,1111122,1111122' 
DISL,ioos:station:DISL:DISL:1,2013-05-02T11:30:00Z,30.2513,-88.0778,9.68,9.65,63.2,-9999.0,'1111122,1111122,1111122' 
DISL,ioos:station:DISL:DISL:1,2013-05-02T12:00:00Z,30.2513,-88.0778,9.68,8.32,59.01,-9999.0,'1111122,1111122,1111122' 
DISL,ioos:station:DISL:DISL:1,2013-05-02T12:30:00Z,30.2513,-88.0778,9.68,8.1,65.0,-9999.0,'1111122,1111122,1111122' 
DISL,ioos:station:DISL:DISL:1,2013-05-02T13:00:00Z,30.2513,-88.0778,9.68,9.56,67.65,-9999.0,'1111122,1111122,1111122' 
DISL,ioos:station:DISL:DISL:1,2013-05-02T13:30:00Z,30.2513,-88.0778,9.68,10.72,73.5,-9999.0,'1111122,1111122,1111122' 
DISL,ioos:station:DISL:DISL:1,2013-05-02T14:00:00Z,30.2513,-88.0778,9.68,8.99,76.8,-9999.0,'1111122,1111122,1111122' 
DISL,ioos:station:DISL:DISL:1,2013-05-02T14:30:00Z,30.2513,-88.0778,9.68,8.46,79.2,-9999.0,'1111122,1111122,1111122' 
DISL,ioos:station:DISL:DISL:1,2013-05-02T15:00:00Z,30.2513,-88.0778,9.68,10.48,83.8,-9999.0,'1111122,1111122,1111122' 
DISL,ioos:station:DISL:DISL:1,2013-05-02T15:30:00Z,30.2513,-88.0778,9.68,9.83,84.5,-9999.0,'1111122,1111122,1111122' 
DISL,ioos:station:DISL:DISL:1,2013-05-02T16:00:00Z,30.2513,-88.0778,9.68,10.59,78.1,-9999.0,'1111122,1111122,1111122' 
DISL,ioos:station:DISL:DISL:1,2013-05-02T16:30:00Z,30.2513,-88.0778,9.68,9.98,76.4,-9999.0,'1111122,1111122,1111122' 
DISL,ioos:station:DISL:DISL:1,2013-05-02T17:00:00Z,30.2513,-88.0778,9.68,9.99,79.0,-9999.0,'1111122,1111122,1111122' 
DISL,ioos:station:DISL:DISL:1,2013-05-02T17:30:00Z,30.2513,-88.0778,9.68,9.64,81.3,-9999.0,'1111122,1111122,1111122' 
DISL,ioos:station:DISL:DISL:1,2013-05-02T18:00:00Z,30.2513,-88.0778,9.68,9.07,85.7,-9999.0,'1111122,1111122,1111122' 
DISL,ioos:station:DISL:DISL:1,2013-05-02T18:30:00Z,30.2513,-88.0778,9.68,7.78,76.7,-9999.0,'1111122,1111122,1111122' 
DISL,ioos:station:DISL:DISL:1,2013-05-02T19:00:00Z,30.2513,-88.0778,9.68,6.16,81.9,-9999.0,'1111122,1111122,1111122' 
DISL,ioos:station:DISL:DISL:1,2013-05-02T19:30:00Z,30.2513,-88.0778,9.68,8.72,98.9,-9999.0,'1111122,1111122,1111122' 
DISL,ioos:station:DISL:DISL:1,2013-05-02T20:00:00Z,30.2513,-88.0778,9.68,8.8,98.9,-9999.0,'1111122,1111122,1111122' 
DISL,ioos:station:DISL:DISL:1,2013-05-02T20:30:00Z,30.2513,-88.0778,9.68,8.34,98.1,-9999.0,'1111122,1111122,1111122' 
DISL,ioos:station:DISL:DISL:1,2013-05-02T21:00:00Z,30.2513,-88.0778,9.68,7.39,97.3,-9999.0,'1111122,1111122,1111122' 
DISL,ioos:station:DISL:DISL:1,2013-05-02T21:30:00Z,30.2513,-88.0778,9.68,6.93,102.4,-9999.0,'1111122,1111122,1111122' 
DISL,ioos:station:DISL:DISL:1,2013-05-02T22:00:00Z,30.2513,-88.0778,9.68,6.94,97.8,-9999.0,'1111122,1111122,1111122' 
DISL,ioos:station:DISL:DISL:1,2013-05-02T22:30:00Z,30.2513,-88.0778,9.68,7.08,98.7,-9999.0,'1111122,1111122,1111122' 
DISL,ioos:station:DISL:DISL:1,2013-05-02T23:00:00Z,30.2513,-88.0778,9.68,6.36,100.1,-9999.0,'1111122,1111122,1111122' 
DISL,ioos:station:DISL:DISL:1,2013-05-02T23:30:00Z,30.2513,-88.0778,9.68,6.24,96.0,-9999.0,'1111122,1111122,1111122' 
DISL,ioos:station:DISL:DISL:1,2013-05-03T00:00:00Z,30.2513,-88.0778,9.68,5.31,95.4,-9999.0,'1111122,1111122,1111122' 
DISL,ioos:station:DISL:DISL:1,2013-05-03T00:30:00Z,30.2513,-88.0778,9.68,4.04,74.1,-9999.0,'1111122,1111122,1111122' 
DISL,ioos:station:DISL:DISL:1,2013-05-03T01:00:00Z,30.2513,-88.0778,9.68,3.46,60.93,-9999.0,'1111122,1111122,1111122' 
DISL,ioos:station:DISL:DISL:1,2013-05-03T01:30:00Z,30.2513,-88.0778,9.68,2.86,25.79,-9999.0,'1111122,1111122,1111122' 
DISL,ioos:station:DISL:DISL:1,2013-05-03T02:00:00Z,30.2513,-88.0778,9.68,3.38,6.86,-9999.0,'1111122,1111122,1111122' 
DISL,ioos:station:DISL:DISL:1,2013-05-03T02:30:00Z,30.2513,-88.0778,9.68,8.59,65.39,-9999.0,'1111122,1111122,1111122' 
DISL,ioos:station:DISL:DISL:1,2013-05-03T03:00:00Z,30.2513,-88.0778,9.68,7.03,82.0,-9999.0,'1111122,1111122,1111122' 
DISL,ioos:station:DISL:DISL:1,2013-05-03T03:30:00Z,30.2513,-88.0778,9.68,7.99,92.3,-9999.0,'1111122,1111122,1111122' 
DISL,ioos:station:DISL:DISL:1,2013-05-03T04:00:00Z,30.2513,-88.0778,9.68,5.11,89.7,-9999.0,'1111122,1111122,1111122' 
DISL,ioos:station:DISL:DISL:1,2013-05-03T04:30:00Z,30.2513,-88.0778,9.68,4.73,78.0,-9999.0,'1111122,1111122,1111122' 
DISL,ioos:station:DISL:DISL:1,2013-05-03T05:00:00Z,30.2513,-88.0778,9.68,7.4,65.5,-9999.0,'1111122,1111122,1111122' 
DISL,ioos:station:DISL:DISL:1,2013-05-03T05:30:00Z,30.2513,-88.0778,9.68,7.11,66.9,-9999.0,'1111122,1111122,1111122' 
DISL,ioos:station:DISL:DISL:1,2013-05-03T06:00:00Z,30.2513,-88.0778,9.68,6.54,66.56,-9999.0,'1111122,1111122,1111122' 
DISL,ioos:station:DISL:DISL:1,2013-05-03T06:30:00Z,30.2513,-88.0778,9.68,7.18,73.7,-9999.0,'1111122,1111122,1111122' 
DISL,ioos:station:DISL:DISL:1,2013-05-03T07:00:00Z,30.2513,-88.0778,9.68,7.41,73.6,-9999.0,'1111122,1111122,1111122' 
DISL,ioos:station:DISL:DISL:1,2013-05-03T07:30:00Z,30.2513,-88.0778,9.68,7.44,73.5,-9999.0,'1111122,1111122,1111122' 
DISL,ioos:station:DISL:DISL:1,2013-05-03T08:00:00Z,30.2513,-88.0778,9.68,6.48,72.1,-9999.0,'1111122,1111122,1111122' 
DISL,ioos:station:DISL:DISL:1,2013-05-03T08:30:00Z,30.2513,-88.0778,9.68,6.75,57.6,-9999.0,'1111122,1111122,1111122' 
DISL,ioos:station:DISL:DISL:1,2013-05-03T09:00:00Z,30.2513,-88.0778,9.68,6.46,62.37,-9999.0,'1111122,1111122,1111122' 
DISL,ioos:station:DISL:DISL:1,2013-05-03T09:30:00Z,30.2513,-88.0778,9.68,7.16,60.24,-9999.0,'1111122,1111122,1111122' 
DISL,ioos:station:DISL:DISL:1,2013-05-03T10:00:00Z,30.2513,-88.0778,9.68,7.14,55.21,-9999.0,'1111122,1111122,1111122' 
DISL,ioos:station:DISL:DISL:1,2013-05-03T10:30:00Z,30.2513,-88.0778,9.68,7.16,63.24,-9999.0,'1111122,1111122,1111122' 
DISL,ioos:station:DISL:DISL:1,2013-05-03T11:00:00Z,30.2513,-88.0778,9.68,7.18,54.22,-9999.0,'1111122,1111122,1111122' 
DISL,ioos:station:DISL:DISL:1,2013-05-03T11:30:00Z,30.2513,-88.0778,9.68,7.67,62.09,-9999.0,'1111122,1111122,1111122' 
DISL,ioos:station:DISL:DISL:1,2013-05-03T12:00:00Z,30.2513,-88.0778,9.68,7.24,63.45,-9999.0,'1111122,1111122,1111122' 
DISL,ioos:station:DISL:DISL:1,2013-05-03T12:30:00Z,30.2513,-88.0778,9.68,6.91,65.65,-9999.0,'1111122,1111122,1111122' 
DISL,ioos:station:DISL:DISL:1,2013-05-03T13:00:00Z,30.2513,-88.0778,9.68,6.74,55.94,-9999.0,'1111122,1111122,1111122' 
DISL,ioos:station:DISL:DISL:1,2013-05-03T13:30:00Z,30.2513,-88.0778,9.68,6.91,56.89,-9999.0,'1111122,1111122,1111122' 
DISL,ioos:station:DISL:DISL:1,2013-05-03T14:00:00Z,30.2513,-88.0778,9.68,6.33,61.21,-9999.0,'1111122,1111122,1111122' 
DISL,ioos:station:DISL:DISL:1,2013-05-03T14:30:00Z,30.2513,-88.0778,9.68,6.08,67.24,-9999.0,'1111122,1111122,1111122' 
DISL,ioos:station:DISL:DISL:1,2013-05-03T15:00:00Z,30.2513,-88.0778,9.68,5.41,65.16,-9999.0,'1111122,1111122,1111122' 
DISL,ioos:station:DISL:DISL:1,2013-05-03T15:30:00Z,30.2513,-88.0778,9.68,4.79,68.28,-9999.0,'1111122,1111122,1111122' 
DISL,ioos:station:DISL:DISL:1,2013-05-03T16:00:00Z,30.2513,-88.0778,9.68,4.84,68.7,-9999.0,'1111122,1111122,1111122' 
DISL,ioos:station:DISL:DISL:1,2013-05-03T16:30:00Z,30.2513,-88.0778,9.68,4.77,72.4,-9999.0,'1111122,1111122,1111122' 
DISL,ioos:station:DISL:DISL:1,2013-05-03T17:00:00Z,30.2513,-88.0778,9.68,4.88,77.8,-9999.0,'1111122,1111122,1111122' 
DISL,ioos:station:DISL:DISL:1,2013-05-03T17:30:00Z,30.2513,-88.0778,9.68,7.31,96.1,-9999.0,'1111122,1111122,1111122' 
DISL,ioos:station:DISL:DISL:1,2013-05-03T18:00:00Z,30.2513,-88.0778,9.68,6.44,86.1,-9999.0,'1111122,1111122,1111122' 
DISL,ioos:station:DISL:DISL:1,2013-05-03T18:30:00Z,30.2513,-88.0778,9.68,5.64,93.7,-9999.0,'1111122,1111122,1111122' 
DISL,ioos:station:DISL:DISL:1,2013-05-03T19:00:00Z,30.2513,-88.0778,9.68,4.61,77.8,-9999.0,'1111122,1111122,1111122' 
DISL,ioos:station:DISL:DISL:1,2013-05-03T19:30:00Z,30.2513,-88.0778,9.68,5.67,106.7,-9999.0,'1111122,1111122,1111122' 
DISL,ioos:station:DISL:DISL:1,2013-05-03T20:00:00Z,30.2513,-88.0778,9.68,4.4,105.2,-9999.0,'1111122,1111122,1111122' 
DISL,ioos:station:DISL:DISL:1,2013-05-03T20:30:00Z,30.2513,-88.0778,9.68,4.59,103.2,-9999.0,'1111122,1111122,1111122' 
DISL,ioos:station:DISL:DISL:1,2013-05-03T21:00:00Z,30.2513,-88.0778,9.68,4.59,108.5,-9999.0,'1111122,1111122,1111122' 
DISL,ioos:station:DISL:DISL:1,2013-05-03T21:30:00Z,30.2513,-88.0778,9.68,5.4,92.9,-9999.0,'1111122,1111122,1111122' 
DISL,ioos:station:DISL:DISL:1,2013-05-03T22:00:00Z,30.2513,-88.0778,9.68,4.83,98.7,-9999.0,'1111122,1111122,1111122' 
DISL,ioos:station:DISL:DISL:1,2013-05-03T22:30:00Z,30.2513,-88.0778,9.68,4.5,120.5,-9999.0,'1111122,1111122,1111122' 
DISL,ioos:station:DISL:DISL:1,2013-05-03T23:00:00Z,30.2513,-88.0778,9.68,5.24,116.0,-9999.0,'1111122,1111122,1111122' 
DISL,ioos:station:DISL:DISL:1,2013-05-03T23:30:00Z,30.2513,-88.0778,9.68,4.68,113.4,-9999.0,'1111122,1111122,1111122' 
DISL,ioos:station:DISL:DISL:1,2013-05-04T00:00:00Z,30.2513,-88.0778,9.68,11.39,306.6,-9999.0,'1111122,1111122,1111122' 
DISL,ioos:station:DISL:DISL:1,2013-05-04T00:30:00Z,30.2513,-88.0778,9.68,10.31,314.4,-9999.0,'1111122,1111122,1111122' 
DISL,ioos:station:DISL:DISL:1,2013-05-04T01:00:00Z,30.2513,-88.0778,9.68,11.59,322.3,-9999.0,'1111122,1111122,1111122' 
DISL,ioos:station:DISL:DISL:1,2013-05-04T01:30:00Z,30.2513,-88.0778,9.68,10.1,325.5,-9999.0,'1111122,1111122,1111122' 
DISL,ioos:station:DISL:DISL:1,2013-05-04T02:00:00Z,30.2513,-88.0778,9.68,11.78,327.0,-9999.0,'1111122,1111122,1111122' 
DISL,ioos:station:DISL:DISL:1,2013-05-04T02:30:00Z,30.2513,-88.0778,9.68,11.57,322.7,-9999.0,'1111122,1111122,1111122' 
DISL,ioos:station:DISL:DISL:1,2013-05-04T03:00:00Z,30.2513,-88.0778,9.68,11.06,322.1,-9999.0,'1111122,1111122,1111122' 
DISL,ioos:station:DISL:DISL:1,2013-05-04T03:30:00Z,30.2513,-88.0778,9.68,11.6,321.6,-9999.0,'1111122,1111122,1111122' 
DISL,ioos:station:DISL:DISL:1,2013-05-04T04:00:00Z,30.2513,-88.0778,9.68,11.99,323.0,-9999.0,'1111122,1111122,1111122' 
DISL,ioos:station:DISL:DISL:1,2013-05-04T04:30:00Z,30.2513,-88.0778,9.68,11.65,325.3,-9999.0,'1111122,1111122,1111122' 
DISL,ioos:station:DISL:DISL:1,2013-05-04T05:00:00Z,30.2513,-88.0778,9.68,12.38,327.2,-9999.0,'1111122,1111122,1111122' 
DISL,ioos:station:DISL:DISL:1,2013-05-04T05:30:00Z,30.2513,-88.0778,9.68,11.86,333.9,-9999.0,'1111122,1111122,1111122' 
DISL,ioos:station:DISL:DISL:1,2013-05-04T06:00:00Z,30.2513,-88.0778,9.68,13.3,335.5,-9999.0,'1111122,1111122,1111122' 
DISL,ioos:station:DISL:DISL:1,2013-05-04T06:30:00Z,30.2513,-88.0778,9.68,14.15,336.8,-9999.0,'1111122,1111122,1111122' 
DISL,ioos:station:DISL:DISL:1,2013-05-04T07:00:00Z,30.2513,-88.0778,9.68,14.46,340.6,-9999.0,'1111122,1111122,1111122' 
DISL,ioos:station:DISL:DISL:1,2013-05-04T07:30:00Z,30.2513,-88.0778,9.68,14.61,339.8,-9999.0,'1111122,1111122,1111122' 
DISL,ioos:station:DISL:DISL:1,2013-05-04T08:00:00Z,30.2513,-88.0778,9.68,14.08,341.9,-9999.0,'1111122,1111122,1111122' 
DISL,ioos:station:DISL:DISL:1,2013-05-04T08:30:00Z,30.2513,-88.0778,9.68,13.13,339.9,-9999.0,'1111122,1111122,1111122' 
DISL,ioos:station:DISL:DISL:1,2013-05-04T09:00:00Z,30.2513,-88.0778,9.68,13.08,337.4,-9999.0,'1111122,1111122,1111122' 
DISL,ioos:station:DISL:DISL:1,2013-05-04T09:30:00Z,30.2513,-88.0778,9.68,13.01,335.1,-9999.0,'1111122,1111122,1111122' 
DISL,ioos:station:DISL:DISL:1,2013-05-04T10:00:00Z,30.2513,-88.0778,9.68,12.24,338.3,-9999.0,'1111122,1111122,1111122' 
DISL,ioos:station:DISL:DISL:1,2013-05-04T10:30:00Z,30.2513,-88.0778,9.68,11.77,335.8,-9999.0,'1111122,1111122,1111122' 
DISL,ioos:station:DISL:DISL:1,2013-05-04T11:00:00Z,30.2513,-88.0778,9.68,10.66,333.1,-9999.0,'1111122,1111122,1111122' 
DISL,ioos:station:DISL:DISL:1,2013-05-04T11:30:00Z,30.2513,-88.0778,9.68,9.85,331.5,-9999.0,'1111122,1111122,1111122' 
DISL,ioos:station:DISL:DISL:1,2013-05-04T12:00:00Z,30.2513,-88.0778,9.68,10.0,330.6,-9999.0,'1111122,1111122,1111122' 
DISL,ioos:station:DISL:DISL:1,2013-05-04T12:30:00Z,30.2513,-88.0778,9.68,9.24,334.2,-9999.0,'1111122,1111122,1111122' 
DISL,ioos:station:DISL:DISL:1,2013-05-04T13:00:00Z,30.2513,-88.0778,9.68,8.8,333.2,-9999.0,'1111122,1111122,1111122' 
DISL,ioos:station:DISL:DISL:1,2013-05-04T13:30:00Z,30.2513,-88.0778,9.68,8.82,333.4,-9999.0,'1111122,1111122,1111122' 
DISL,ioos:station:DISL:DISL:1,2013-05-04T14:00:00Z,30.2513,-88.0778,9.68,8.26,325.6,-9999.0,'1111122,1111122,1111122' 
DISL,ioos:station:DISL:DISL:1,2013-05-04T14:30:00Z,30.2513,-88.0778,9.68,8.45,327.5,-9999.0,'1111122,1111122,1111122' 
DISL,ioos:station:DISL:DISL:1,2013-05-04T15:00:00Z,30.2513,-88.0778,9.68,10.5,321.8,-9999.0,'1111122,1111122,1111122' 
DISL,ioos:station:DISL:DISL:1,2013-05-04T15:30:00Z,30.2513,-88.0778,9.68,10.03,322.9,-9999.0,'1111122,1111122,1111122' 
DISL,ioos:station:DISL:DISL:1,2013-05-04T16:00:00Z,30.2513,-88.0778,9.68,9.78,326.1,-9999.0,'1111122,1111122,1111122' 
DISL,ioos:station:DISL:DISL:1,2013-05-04T16:30:00Z,30.2513,-88.0778,9.68,9.61,328.5,-9999.0,'1111122,1111122,1111122' 
DISL,ioos:station:DISL:DISL:1,2013-05-04T17:00:00Z,30.2513,-88.0778,9.68,9.82,327.3,-9999.0,'1111122,1111122,1111122' 
DISL,ioos:station:DISL:DISL:1,2013-05-04T17:30:00Z,30.2513,-88.0778,9.68,9.33,320.3,-9999.0,'1111122,1111122,1111122' 
DISL,ioos:station:DISL:DISL:1,2013-05-04T18:00:00Z,30.2513,-88.0778,9.68,8.04,334.7,-9999.0,'1111122,1111122,1111122' 
DISL,ioos:station:DISL:DISL:1,2013-05-04T18:30:00Z,30.2513,-88.0778,9.68,8.73,327.3,-9999.0,'1111122,1111122,1111122' 
DISL,ioos:station:DISL:DISL:1,2013-05-04T19:00:00Z,30.2513,-88.0778,9.68,8.16,315.9,-9999.0,'1111122,1111122,1111122' 
DISL,ioos:station:DISL:DISL:1,2013-05-04T19:30:00Z,30.2513,-88.0778,9.68,8.35,319.1,-9999.0,'1111122,1111122,1111122' 
DISL,ioos:station:DISL:DISL:1,2013-05-04T20:00:00Z,30.2513,-88.0778,9.68,7.32,337.4,-9999.0,'1111122,1111122,1111122' 
DISL,ioos:station:DISL:DISL:1,2013-05-04T20:30:00Z,30.2513,-88.0778,9.68,9.46,332.2,-9999.0,'1111122,1111122,1111122' 
DISL,ioos:station:DISL:DISL:1,2013-05-04T21:00:00Z,30.2513,-88.0778,9.68,8.33,326.2,-9999.0,'1111122,1111122,1111122' 
DISL,ioos:station:DISL:DISL:1,2013-05-04T21:30:00Z,30.2513,-88.0778,9.68,8.0,320.9,-9999.0,'1111122,1111122,1111122' 
DISL,ioos:station:DISL:DISL:1,2013-05-04T22:00:00Z,30.2513,-88.0778,9.68,7.13,321.6,-9999.0,'1111122,1111122,1111122' 
DISL,ioos:station:DISL:DISL:1,2013-05-04T22:30:00Z,30.2513,-88.0778,9.68,6.37,317.4,-9999.0,'1111122,1111122,1111122' 
DISL,ioos:station:DISL:DISL:1,2013-05-04T23:00:00Z,30.2513,-88.0778,9.68,6.38,333.1,-9999.0,'1111122,1111122,1111122' 
DISL,ioos:station:DISL:DISL:1,2013-05-04T23:30:00Z,30.2513,-88.0778,9.68,5.2,328.7,-9999.0,'1111122,1111122,1111122' 
DISL,ioos:station:DISL:DISL:1,2013-05-05T00:00:00Z,30.2513,-88.0778,9.68,5.18,333.9,-9999.0,'1111122,1111122,1111122' 
DISL,ioos:station:DISL:DISL:1,2013-05-05T00:30:00Z,30.2513,-88.0778,9.68,4.99,332.7,-9999.0,'1111122,1111122,1111122' 
DISL,ioos:station:DISL:DISL:1,2013-05-05T01:00:00Z,30.2513,-88.0778,9.68,5.02,325.7,-9999.0,'1111122,1111122,1111122' 
DISL,ioos:station:DISL:DISL:1,2013-05-05T01:30:00Z,30.2513,-88.0778,9.68,4.34,327.5,-9999.0,'1111122,1111122,1111122' 
DISL,ioos:station:DISL:DISL:1,2013-05-05T02:00:00Z,30.2513,-88.0778,9.68,4.47,329.5,-9999.0,'1111122,1111122,1111122' 
DISL,ioos:station:DISL:DISL:1,2013-05-05T02:30:00Z,30.2513,-88.0778,9.68,3.64,330.7,-9999.0,'1111122,1111122,1111122' 
DISL,ioos:station:DISL:DISL:1,2013-05-05T03:00:00Z,30.2513,-88.0778,9.68,2.39,306.8,-9999.0,'1111122,1111122,1111122' 
DISL,ioos:station:DISL:DISL:1,2013-05-05T03:30:00Z,30.2513,-88.0778,9.68,1.78,273.4,-9999.0,'1111122,1111122,1111122' 
DISL,ioos:station:DISL:DISL:1,2013-05-05T04:00:00Z,30.2513,-88.0778,9.68,0.88,263.2,-9999.0,'1111122,1111122,1111122' 